Location: Unspecified
(0.0000°N, 0.0000°E)
Time: 12:49:58
(UTC+00:00)

ISS - Visible Passes

Search period start: 17 October 2019 00:00
Search period end: 27 October 2019 00:00
Orbit: 411 x 421 km, 51.6° (Epoch: 17 October)

Date Brightness Start Highest point End Pass type
(mag) Time Alt. Az. Time Alt. Az. Time Alt. Az.
17 Oct -0.6 18:40:55 10° W 18:42:43 14° SW 18:44:31 10° SSW visible
18 Oct -0.4 04:40:29 10° SSE 04:41:58 12° SE 04:43:27 10° E visible
20 Oct -3.2 04:38:09 10° SSW 04:41:29 59° SE 04:44:48 10° NE visible
21 Oct -1.4 03:53:19 23° ESE 03:53:19 23° ESE 03:55:44 10° ENE visible
22 Oct -2.2 04:41:55 21° NNW 04:41:55 21° NNW 04:43:43 10° N visible
